Vorticity
6 6 6 6 6 6 7 8 9 10 11 10 10 10 11 12 11 11 12 13 16 16 14 15 18 19 17 13 11 12 16 20 21 19 17 12 6 6 6 8 11 12 14 15 14 15 14 13 14 14 20 33 38 33 28 32 35 27 15 11 8 -3 -15 -10 7 11 8 18 23 11 -1 -3 -7 -11 -4 6 9 10 9 6 4 3 1 -1 -3
6 6 6 6 7 7 7 8 10 12 12 10 10 10 11 12 12 12 13 14 16 16 14 15 17 18 16 13 11 12 14 19 22 18 16 14 10 8 7 6 7 9 11 13 13 14 14 13 11 10 9 15 28 37 35 31 34 37 31 19 12 7 -3 -11 -3 7 2 2 17 19 5 -0 1 -8 -12 -2 4 7 12 11 8 7 6 6 5
6 6 6 6 7 8 9 10 12 12 11 10 10 11 12 12 13 13 14 16 17 16 14 15 17 17 16 13 11 12 12 15 21 20 16 14 12 10 10 8 7 7 7 9 10 11 13 14 12 11 9 6 10 21 33 35 33 36 39 35 23 14 7 -1 -5 3 8 3 8 17 11 4 8 2 -9 -6 2 5 10 14 12 10 9 8 9
6 6 6 6 7 10 11 11 12 11 11 11 11 12 12 13 14 15 15 18 18 16 15 16 17 17 16 14 11 11 13 14 17 20 18 15 12 11 10 9 9 9 8 7 8 8 9 10 11 11 11 10 8 7 15 26 32 34 37 40 38 28 17 10 0 -6 -1 1 2 13 17 10 9 9 -2 -6 2 6 7 10 13 15 15 13 9
6 6 7 7 9 11 12 11 11 11 11 12 12 12 13 14 16 16 17 19 18 15 16 16 15 17 16 14 11 10 12 14 15 18 19 16 13 11 10 9 8 8 9 9 9 10 10 9 9 9 8 8 9 8 6 10 19 28 33 35 41 41 31 22 14 1 -7 -7 -7 1 14 18 17 14 5 -3 2 10 10 7 8 10 13 16 15
6 6 7 9 10 11 12 11 11 11 12 12 13 14 15 17 18 18 19 19 17 15 16 15 14 16 16 14 11 10 12 14 15 17 18 16 14 12 10 8 8 8 8 8 8 9 10 11 11 11 12 9 8 8 7 5 6 13 23 29 35 42 41 34 28 17 4 -4 -8 -10 -2 10 21 25 16 3 -2 5 13 14 12 10 8 8 12
6 7 8 9 11 12 12 12 12 13 13 13 14 15 17 18 18 18 19 18 17 16 15 16 14 14 16 15 12 10 11 14 16 17 17 17 15 13 11 9 7 7 7 6 6 6 7 8 8 9 12 13 13 11 10 8 6 4 8 16 24 33 40 41 37 32 21 7 -2 -5 -9 -8 4 20 25 18 5 -2 -0 6 10 13 13 9 7
6 7 8 10 12 13 12 13 13 14 15 15 17 18 19 20 18 18 18 17 17 16 16 16 14 14 16 15 12 10 10 12 15 16 17 17 16 14 12 11 9 7 6 5 5 5 5 5 6 6 7 10 13 15 15 12 11 8 5 6 12 20 29 37 41 42 38 24 8 2 -2 -9 -12 -3 10 19 20 11 -2 -11 -11 -4 4 8 8
7 8 9 11 13 13 13 14 15 16 17 17 18 19 19 19 18 16 16 16 16 16 16 16 14 12 14 15 13 11 10 12 15 16 16 16 16 16 14 12 11 8 6 6 5 5 5 4 4 5 7 8 11 14 17 17 15 14 11 8 7 9 15 25 34 42 47 44 29 10 -0 -2 -4 -7 -7 0 12 19 16 4 -9 -14 -10 -5 -1
8 10 11 12 14 14 14 15 17 18 19 19 19 19 19 19 18 16 16 16 15 15 16 17 14 11 12 14 14 11 11 13 15 16 16 15 15 15 15 13 13 11 8 7 7 6 6 7 6 6 8 10 13 15 16 17 18 18 16 14 11 9 8 12 20 31 41 50 50 34 10 -1 1 3 -1 -4 -3 4 14 21 15 1 -5 -7 -8
10 11 13 14 15 16 16 18 19 19 20 20 19 20 20 19 18 18 18 17 16 15 15 16 16 12 10 13 14 12 11 13 15 16 15 14 14 14 14 14 13 13 11 9 8 8 7 7 8 10 12 14 16 19 18 18 19 20 19 18 16 14 11 8 9 16 26 37 50 53 38 15 3 5 6 2 -0 -1 -2 6 18 18 12 6 -0
12 13 15 17 17 18 18 19 19 20 20 20 20 20 19 19 18 18 18 18 17 16 16 17 18 14 11 12 13 13 12 12 15 16 15 14 14 13 13 13 12 12 12 11 10 10 9 10 12 14 17 19 19 19 20 20 20 22 22 21 20 18 16 13 9 8 12 20 31 45 52 40 20 12 11 3 -0 6 4 -4 -1 8 15 17 11
14 16 18 19 19 19 20 19 19 21 22 21 21 20 19 19 18 17 17 17 17 16 17 18 18 15 12 11 12 12 13 14 15 16 15 14 13 14 13 12 12 11 11 11 11 11 12 14 17 19 19 20 21 21 22 22 22 22 23 23 23 22 20 19 16 11 9 11 16 25 41 49 39 26 22 13 -1 -2 9 10 1 -6 -1 10 14
16 18 20 21 21 21 21 21 21 22 22 21 20 20 19 18 17 17 16 16 16 16 17 17 17 16 13 11 12 13 13 15 16 15 14 13 12 13 13 13 12 11 11 11 12 14 17 18 19 20 20 21 22 22 22 22 21 21 22 23 24 25 24 22 21 19 15 11 11 12 19 35 44 38 32 29 16 -1 -5 6 13 5 -6 -5 4
18 21 22 23 25 24 23 22 22 22 21 20 19 20 19 18 17 16 16 16 16 16 17 17 17 16 13 12 13 14 14 15 16 14 14 13 12 12 12 12 12 11 11 13 15 17 18 19 19 19 21 21 21 20 19 19 19 19 19 21 22 23 25 25 23 22 21 17 15 12 10 18 32 38 37 38 36 22 1 -8 6 16 8 -4 -7
20 23 25 26 27 25 23 22 21 21 21 20 20 19 18 18 17 16 16 16 16 16 17 17 17 15 14 14 14 15 15 15 15 14 13 12 12 11 11 11 12 12 13 16 18 18 18 18 19 19 20 20 19 17 17 16 16 17 17 17 19 20 21 23 24 23 23 22 21 17 13 13 18 26 34 37 40 41 26 4 -1 10 16 9 -1
23 26 29 29 27 24 23 22 22 23 22 21 21 20 19 19 18 17 17 16 16 16 16 16 16 15 15 16 15 16 15 15 14 13 12 12 11 10 11 11 12 14 17 18 17 17 17 17 17 17 18 18 16 15 15 15 14 15 16 16 17 17 18 20 22 23 22 22 23 21 18 17 16 17 23 29 35 40 40 28 12 7 12 15 8
28 30 30 28 25 24 24 23 22 22 21 21 21 20 20 20 20 19 18 17 16 17 16 16 16 16 16 16 16 16 15 14 13 13 12 11 10 10 11 13 15 17 19 19 17 16 16 15 14 15 16 16 16 14 14 14 14 14 15 16 16 16 17 17 18 21 21 20 21 23 22 20 19 18 19 22 27 31 36 39 29 16 16 19 12
30 30 27 25 24 25 24 22 21 20 20 20 20 20 20 21 21 20 20 19 18 17 17 16 16 15 16 16 16 15 15 14 13 13 12 11 11 12 13 15 18 19 18 16 15 15 14 13 13 14 15 15 16 15 14 14 15 15 15 15 15 15 16 16 16 17 20 20 19 20 22 22 20 20 19 20 22 24 30 37 34 26 28 28 18
29 27 24 23 24 23 21 19 19 18 18 18 18 19 20 20 21 21 21 20 19 17 16 16 16 16 15 16 15 15 15 14 13 12 12 12 12 14 16 17 18 18 16 15 15 14 13 13 13 13 14 14 15 15 15 15 15 16 16 16 16 15 14 15 16 16 16 19 19 19 19 20 21 21 20 20 21 21 25 30 30 31 35 35 27
26 24 24 23 21 19 17 17 17 16 16 16 17 17 18 19 20 21 21 20 19 18 17 16 16 16 16 15 15 14 14 14 13 12 12 13 14 15 16 18 17 15 14 14 15 14 14 14 14 13 13 13 14 14 14 15 15 16 16 16 16 16 15 14 15 16 16 17 18 19 19 18 19 20 20 20 20 20 22 24 25 29 35 36 33
23 23 22 20 19 17 15 15 15 15 15 15 16 16 16 18 19 19 20 20 18 18 17 17 17 16 15 15 15 14 14 13 13 13 13 14 15 16 16 16 15 14 15 15 14 14 14 13 13 13 13 13 13 13 13 14 15 15 16 16 16 15 16 16 15 16 17 17 17 18 18 18 18 18 18 19 19 19 21 22 21 24 30 34 34
22 21 20 19 18 17 17 17 16 16 17 16 15 15 15 16 17 18 19 19 19 18 17 16 16 16 15 15 15 14 14 13 13 14 15 15 15 15 15 15 14 14 15 15 13 12 12 11 11 11 12 11 11 12 13 13 14 15 15 16 16 16 16 17 17 17 17 17 16 16 16 16 17 17 17 17 17 18 19 20 20 20 23 27 30
21 20 21 21 21 21 21 20 20 20 19 17 15 15 14 15 16 17 18 19 19 19 18 16 16 16 15 15 15 13 13 13 14 15 15 15 15 14 13 13 13 14 15 14 12 10 10 11 11 11 11 11 10 11 12 12 13 15 15 16 16 17 17 17 17 18 18 17 17 16 16 16 16 16 16 16 16 17 17 17 18 18 18 20 23
22 23 25 24 24 23 23 23 23 22 21 18 17 15 14 14 16 17 18 19 18 18 17 16 16 16 15 15 14 14 14 14 15 15 15 14 13 13 13 14 14 15 15 12 10 10 11 13 14 14 13 12 11 10 10 11 12 13 14 16 16 17 18 17 17 17 18 18 18 17 16 15 15 15 16 15 15 16 16 17 17 18 18 18 17
25 26 25 23 22 22 22 22 23 23 22 20 18 16 15 15 15 17 17 18 18 18 17 17 16 16 15 15 15 14 14 15 15 14 14 13 12 12 13 14 14 15 14 14 14 16 20 23 23 22 20 18 15 13 10 9 11 12 13 15 16 17 17 16 16 16 16 16 16 17 16 16 15 15 15 16 16 16 17 18 18 18 19 20 19
25 24 22 21 22 22 22 23 23 23 23 22 19 18 16 14 15 17 17 18 19 18 17 17 16 16 15 15 15 14 14 14 14 13 12 12 12 12 13 15 16 17 17 19 20 22 23 24 23 22 22 22 21 19 16 11 9 10 11 13 15 15 15 15 14 14 14 14 15 16 17 17 18 17 17 17 17 17 17 18 19 18 19 20 21
24 23 23 23 24 24 23 23 23 22 22 22 20 18 16 15 15 17 17 18 18 17 17 17 16 16 16 15 14 14 14 13 12 12 12 11 11 13 15 17 18 20 19 18 17 15 13 12 11 11 12 14 16 18 19 18 14 10 10 12 14 14 14 14 13 12 12 13 14 17 19 20 21 20 19 18 16 16 17 17 18 18 18 20 23
24 24 23 22 21 21 21 21 22 22 21 21 20 18 16 15 16 16 18 19 18 17 17 16 16 16 15 14 14 13 13 12 12 12 11 12 12 14 16 19 21 19 16 12 10 9 8 7 7 6 6 8 11 13 16 18 18 14 10 10 12 14 14 13 13 12 13 13 15 17 18 19 20 19 18 16 15 14 15 16 17 17 16 18 21
23 21 20 18 18 18 18 19 20 21 21 20 19 17 16 16 16 17 18 19 18 17 16 15 15 14 13 13 13 13 12 12 13 12 12 12 12 14 18 21 20 14 11 9 9 9 9 7 6 6 6 8 11 13 15 17 18 17 13 10 11 13 13 13 13 13 13 15 15 16 16 16 17 16 15 15 15 15 15 16 16 16 16 16 17
20 20 20 20 20 19 19 19 19 21 22 21 19 17 16 16 17 18 19 18 17 16 15 15 14 13 13 13 12 13 13 12 12 12 13 12 13 16 20 21 16 11 9 9 9 9 9 7 7 8 10 12 13 16 18 18 17 17 15 11 10 12 12 12 12 13 14 15 15 15 16 15 15 15 15 14 14 14 13 13 13 13 13 13 14
21 23 23 23 23 23 21 20 20 21 22 21 19 17 16 17 18 18 18 18 17 15 14 14 13 12 13 13 12 13 13 13 12 12 12 12 14 17 20 19 14 9 8 9 9 9 8 8 10 12 15 17 18 19 20 21 19 18 15 12 11 11 11 12 12 13 15 16 16 15 15 15 14 14 14 14 13 13 12 12 12 12 11 12 13
23 23 23 23 23 23 22 21 21 21 21 21 19 17 17 18 18 18 17 16 15 14 13 12 11 11 11 12 13 13 13 13 13 12 11 13 15 18 20 18 12 8 9 9 8 8 10 13 17 20 22 24 24 23 23 24 22 19 15 13 11 12 12 12 12 13 14 15 15 15 14 14 14 13 13 13 13 13 13 13 13 14 15 15 15
22 21 20 20 21 21 21 21 21 21 20 19 18 17 17 17 18 17 15 14 13 12 12 11 11 11 11 12 13 13 13 14 14 13 12 13 16 18 19 15 10 9 9 8 8 12 17 22 25 28 31 34 34 32 29 27 23 18 14 12 11 12 12 12 12 13 14 13 13 13 13 13 13 12 12 13 13 13 13 14 14 14 14 15 14
19 18 17 18 19 20 20 20 19 19 19 18 17 17 17 17 17 16 14 13 12 10 9 10 10 11 12 13 13 13 13 14 15 14 14 15 17 18 17 12 9 8 7 8 13 20 25 30 34 38 40 40 37 33 29 24 19 15 12 11 11 12 12 13 13 13 13 12 12 13 12 13 13 13 12 12 13 14 13 13 13 13 13 13 13
16 15 15 16 16 17 18 18 18 17 17 17 17 17 16 15 15 14 13 11 11 10 9 10 11 11 12 12 13 13 13 14 15 15 15 17 18 17 14 10 9 7 7 12 20 25 29 32 35 36 35 31 27 23 20 16 13 12 11 11 12 13 13 13 13 12 12 12 12 12 13 13 13 13 14 13 13 13 13 13 13 13 12 11 10
15 15 15 15 14 15 16 17 17 17 17 16 15 15 15 15 14 13 12 11 11 11 11 12 12 13 13 13 14 13 13 15 16 15 16 18 19 16 12 10 8 7 9 16 23 26 26 26 25 22 20 18 16 14 13 11 11 11 12 12 13 13 13 12 12 12 12 12 12 13 13 13 13 13 13 13 13 13 14 14 13 12 12 13 15
15 14 14 14 13 13 14 14 15 16 16 15 15 14 14 14 14 13 13 13 12 13 14 14 14 15 15 15 15 14 14 14 15 15 16 18 19 15 11 9 8 8 11 18 23 23 19 15 13 11 11 11 10 10 10 10 11 12 12 13 13 13 12 12 12 12 13 12 13 13 13 13 14 13 13 14 14 13 13 12 13 15 18 21 24
15 14 13 13 13 12 12 13 14 14 14 15 15 15 14 14 14 14 13 14 14 14 15 15 15 16 16 16 15 15 14 14 14 15 15 17 17 15 11 9 8 8 11 18 22 19 14 10 8 8 9 10 10 10 11 12 12 13 13 13 13 12 12 12 13 12 12 12 13 13 13 13 13 14 14 14 13 12 12 14 16 19 21 25 31
13 12 12 11 11 11 11 11 11 12 13 13 14 14 14 14 14 15 15 15 15 15 15 15 15 15 16 16 16 15 15 14 14 14 15 16 16 14 11 10 9 7 10 16 20 17 12 9 8 9 10 11 10 11 12 12 13 14 14 12 12 12 12 12 12 12 13 13 13 13 14 14 14 14 14 13 13 13 15 17 19 24 30 37 43
12 11 11 11 11 12 12 12 11 11 11 12 12 13 14 15 15 15 15 15 15 16 15 16 16 15 15 15 15 14 14 14 13 13 14 15 15 13 11 10 9 7 7 12 19 19 14 10 9 10 11 10 10 11 12 13 14 14 12 11 11 12 11 12 12 13 13 13 13 14 15 14 14 13 12 12 14 16 19 23 29 34 36 34 30
12 12 11 11 11 11 12 12 12 12 12 12 12 12 13 13 14 14 15 15 15 16 15 15 16 15 15 15 15 14 14 14 13 13 14 14 14 13 11 10 9 8 6 8 15 20 18 12 11 11 11 10 10 11 12 14 13 12 11 11 11 11 11 12 13 13 13 13 14 14 13 12 12 13 13 14 18 22 27 34 37 32 24 15 7
11 10 10 11 11 12 13 13 14 14 14 14 14 14 13 13 13 13 14 14 15 15 15 15 15 15 15 15 15 15 14 14 13 12 13 14 14 13 12 10 9 8 6 7 12 19 20 16 13 12 11 10 10 12 14 14 12 11 11 11 11 11 13 13 12 13 14 14 14 13 13 13 14 14 16 22 28 32 36 35 27 16 13 13 9
10 10 12 13 14 15 15 15 15 16 16 15 16 16 16 15 15 14 13 13 14 14 15 15 14 15 15 15 15 15 14 14 13 12 12 13 15 14 12 11 9 8 7 6 9 17 21 18 14 13 12 10 11 13 14 13 12 11 11 11 12 13 13 12 13 14 13 13 14 13 13 14 15 18 27 35 36 34 30 24 15 10 11 13 10
12 14 15 16 15 15 14 14 14 14 14 14 15 15 15 16 17 16 15 15 14 13 14 14 14 14 15 14 14 15 14 14 14 13 12 12 14 14 13 12 10 8 7 6 8 15 20 19 15 13 11 11 13 14 14 13 12 11 11 12 13 13 12 13 14 13 13 14 14 12 12 17 24 33 40 39 30 24 20 14 7 6 7 7 7
15 16 15 14 14 13 13 13 13 13 13 13 13 13 13 14 15 16 16 16 16 15 14 14 13 14 14 14 14 14 14 14 14 13 12 12 13 15 14 13 11 9 8 6 7 14 19 19 16 12 11 12 13 14 13 12 11 11 12 13 12 13 13 13 13 13 14 14 11 12 21 31 34 35 35 26 16 15 18 13 4 2 5 7 10
15 14 13 13 12 12 12 12 12 12 12 13 12 12 12 12 13 14 14 15 16 16 16 15 14 13 13 14 14 13 13 14 13 13 13 12 12 14 15 13 11 10 8 6 7 12 18 20 16 12 11 13 14 13 12 11 11 12 13 13 12 14 14 12 13 15 14 11 14 25 36 33 25 23 26 20 10 9 14 13 8 8 10 10 11
13 12 12 12 12 12 12 12 13 13 14 14 14 14 14 14 13 14 13 13 14 15 15 16 16 15 13 14 14 13 13 13 13 13 13 12 12 13 15 15 13 11 9 7 6 10 17 20 16 11 11 14 14 12 11 11 12 13 13 12 13 14 13 12 15 15 12 15 27 36 31 18 13 18 23 20 13 12 14 14 13 13 14 13 13
12 12 11 11 12 12 13 15 17 18 19 20 20 20 20 19 18 17 16 15 15 14 14 14 15 15 15 14 14 13 13 13 13 13 13 13 12 13 14 15 15 13 11 8 6 8 16 20 16 11 12 14 13 11 11 11 13 13 12 12 14 13 12 14 17 13 13 25 35 29 14 7 11 17 18 18 19 20 19 18 18 17 16 16 16
12 12 12 13 15 17 19 21 22 23 23 24 24 24 24 24 23 22 22 20 19 17 16 14 14 14 15 15 14 14 14 13 13 13 13 13 13 13 13 15 16 14 12 9 6 7 15 19 16 12 12 14 12 10 10 12 13 12 12 13 14 12 13 16 15 13 20 31 29 14 5 7 12 13 13 14 15 16 18 19 19 19 19 18 18
14 15 17 19 21 22 22 21 21 21 21 21 21 21 22 23 24 25 25 25 24 23 21 19 16 14 14 14 14 14 14 13 14 14 14 13 13 13 13 15 16 15 14 10 6 7 14 19 16 12 13 14 12 10 11 13 13 12 12 14 13 11 14 16 14 16 27 31 18 5 6 11 10 7 7 8 9 14 19 18 15 15 18 20 20
Height
5434 5429 5423 5418 5412 5407 5401 5396 5391 5386 5382 5378 5374 5370 5367 5362 5358 5354 5352 5349 5345 5341 5337 5333 5331 5328 5326 5324 5322 5320 5319 5318 5318 5319 5319 5319 5320 5321 5321 5321 5322 5323 5324 5326 5328 5329 5331 5334 5337 5339 5340 5343 5347 5350 5354 5358 5363 5368 5373 5379 5383 5388 5395 5402 5410 5417 5421 5426 5432 5438 5443 5449 5455 5460 5465 5470 5474 5479 5484 5489 5493 5499 5503 5508 5514
5423 5418 5413 5407 5401 5395 5389 5384 5379 5374 5370 5365 5361 5357 5354 5350 5346 5342 5340 5337 5334 5331 5327 5323 5321 5318 5316 5315 5314 5312 5310 5308 5308 5309 5310 5310 5311 5312 5312 5313 5314 5314 5315 5317 5319 5320 5322 5324 5327 5330 5332 5333 5336 5340 5343 5346 5351 5355 5360 5365 5370 5374 5379 5387 5395 5403 5409 5414 5419 5424 5430 5436 5442 5448 5453 5459 5463 5467 5472 5477 5481 5487 5492 5496 5501
5411 5406 5401 5396 5390 5383 5377 5372 5367 5362 5357 5353 5348 5344 5341 5338 5334 5330 5328 5325 5323 5319 5316 5313 5311 5308 5307 5306 5305 5303 5301 5299 5299 5299 5300 5301 5301 5302 5303 5304 5305 5306 5307 5308 5310 5311 5313 5315 5318 5320 5323 5325 5327 5330 5333 5336 5339 5344 5348 5352 5357 5361 5365 5371 5379 5388 5396 5402 5406 5410 5416 5422 5429 5435 5440 5446 5451 5456 5461 5466 5469 5475 5480 5485 5489
5399 5394 5389 5383 5378 5372 5365 5360 5354 5349 5345 5340 5336 5332 5328 5325 5321 5318 5315 5314 5311 5308 5305 5303 5300 5298 5297 5296 5295 5294 5292 5291 5290 5290 5291 5291 5292 5293 5293 5294 5296 5297 5298 5299 5301 5302 5304 5306 5308 5310 5313 5316 5318 5321 5323 5326 5328 5331 5335 5339 5343 5348 5351 5355 5363 5372 5381 5389 5393 5397 5402 5408 5415 5422 5427 5433 5439 5444 5449 5453 5458 5463 5468 5472 5477
5387 5382 5377 5371 5366 5360 5353 5347 5341 5336 5332 5327 5323 5319 5315 5312 5309 5305 5303 5301 5299 5296 5295 5292 5289 5288 5287 5286 5285 5284 5283 5282 5281 5280 5281 5281 5282 5283 5283 5285 5286 5288 5290 5291 5292 5293 5295 5297 5299 5301 5304 5306 5309 5311 5313 5315 5318 5320 5323 5326 5330 5334 5338 5342 5348 5355 5364 5374 5380 5383 5387 5394 5402 5408 5413 5420 5426 5432 5436 5441 5446 5451 5456 5460 5466
5373 5368 5363 5357 5353 5347 5341 5335 5329 5323 5319 5314 5310 5306 5302 5299 5296 5293 5291 5289 5286 5284 5283 5282 5279 5278 5277 5276 5275 5274 5273 5272 5271 5271 5271 5271 5271 5272 5274 5275 5276 5278 5280 5282 5283 5284 5285 5287 5289 5291 5293 5296 5298 5300 5302 5305 5307 5310 5312 5314 5316 5320 5326 5331 5335 5340 5347 5356 5365 5369 5374 5381 5389 5395 5400 5406 5412 5418 5424 5428 5433 5438 5443 5448 5453
5360 5355 5350 5344 5339 5334 5328 5323 5316 5310 5305 5301 5296 5292 5289 5286 5283 5281 5279 5277 5275 5273 5271 5270 5268 5267 5266 5266 5265 5264 5264 5263 5262 5261 5261 5261 5261 5262 5263 5265 5267 5268 5270 5272 5274 5275 5276 5277 5279 5280 5282 5285 5286 5288 5291 5293 5296 5299 5301 5303 5305 5308 5313 5318 5322 5327 5333 5340 5347 5355 5362 5369 5376 5382 5387 5391 5397 5405 5411 5416 5421 5425 5430 5435 5441
5347 5342 5337 5331 5326 5321 5315 5309 5304 5298 5292 5287 5283 5279 5276 5273 5270 5268 5267 5265 5263 5261 5260 5259 5258 5256 5256 5255 5255 5254 5253 5253 5252 5251 5250 5250 5251 5252 5253 5255 5257 5259 5261 5262 5264 5265 5266 5267 5268 5270 5271 5273 5275 5276 5279 5281 5283 5287 5290 5291 5294 5296 5300 5305 5309 5315 5320 5326 5332 5339 5347 5355 5362 5369 5374 5378 5384 5391 5396 5400 5407 5413 5417 5423 5428
5335 5329 5323 5318 5313 5307 5302 5296 5291 5286 5280 5275 5270 5266 5263 5260 5257 5255 5254 5253 5252 5250 5248 5247 5247 5246 5245 5245 5244 5244 5243 5242 5242 5241 5240 5240 5241 5242 5243 5245 5247 5249 5251 5252 5253 5255 5256 5257 5258 5259 5260 5261 5263 5264 5266 5268 5270 5273 5276 5278 5282 5285 5289 5293 5297 5302 5308 5314 5319 5324 5330 5339 5349 5356 5360 5364 5370 5376 5380 5384 5393 5401 5406 5410 5417
5323 5316 5309 5303 5298 5292 5287 5281 5277 5272 5266 5262 5258 5255 5252 5249 5246 5244 5242 5241 5240 5238 5236 5235 5235 5235 5235 5234 5234 5233 5233 5232 5231 5230 5230 5230 5231 5232 5233 5235 5237 5239 5241 5242 5243 5244 5246 5247 5247 5248 5248 5249 5250 5251 5252 5254 5256 5260 5262 5265 5269 5273 5278 5282 5286 5290 5295 5301 5307 5311 5316 5324 5333 5340 5346 5350 5356 5362 5366 5371 5379 5386 5391 5397 5405
5312 5305 5298 5291 5285 5278 5272 5266 5261 5257 5252 5247 5244 5241 5239 5236 5234 5232 5231 5230 5229 5227 5226 5225 5225 5224 5224 5224 5223 5223 5222 5221 5220 5219 5219 5220 5220 5221 5223 5225 5227 5229 5230 5232 5233 5234 5235 5236 5236 5236 5236 5237 5237 5238 5239 5241 5243 5246 5249 5252 5256 5260 5265 5271 5275 5279 5283 5288 5294 5299 5304 5310 5316 5322 5330 5337 5342 5347 5353 5358 5365 5370 5375 5383 5393
5300 5293 5285 5278 5271 5264 5258 5253 5247 5243 5238 5234 5230 5227 5225 5223 5220 5219 5218 5218 5216 5215 5215 5215 5215 5214 5214 5214 5213 5212 5212 5211 5210 5210 5210 5209 5210 5211 5213 5215 5217 5218 5220 5221 5223 5223 5224 5224 5225 5225 5225 5225 5225 5225 5227 5228 5231 5234 5236 5240 5243 5247 5253 5258 5263 5267 5271 5275 5281 5287 5293 5298 5302 5305 5313 5320 5325 5331 5337 5343 5350 5356 5360 5367 5377
5287 5280 5272 5265 5257 5250 5244 5239 5235 5231 5227 5222 5218 5214 5212 5210 5208 5206 5205 5205 5204 5203 5203 5204 5204 5204 5203 5203 5203 5202 5202 5201 5200 5199 5200 5200 5199 5200 5202 5205 5206 5208 5210 5211 5211 5212 5212 5213 5213 5214 5214 5214 5214 5214 5215 5217 5219 5222 5224 5227 5231 5236 5240 5245 5250 5254 5258 5263 5269 5275 5281 5285 5288 5292 5297 5300 5305 5313 5321 5327 5334 5339 5345 5353 5362
5273 5266 5259 5251 5244 5237 5231 5226 5222 5218 5214 5210 5206 5203 5200 5198 5196 5194 5193 5192 5192 5192 5192 5193 5193 5193 5192 5192 5192 5192 5192 5191 5190 5189 5190 5190 5190 5190 5192 5195 5196 5198 5199 5200 5200 5201 5201 5202 5203 5203 5203 5203 5203 5204 5205 5206 5208 5211 5213 5216 5220 5224 5228 5232 5237 5241 5245 5251 5257 5264 5268 5270 5275 5281 5282 5283 5289 5297 5304 5311 5317 5322 5330 5339 5348
5258 5251 5244 5237 5230 5224 5218 5212 5208 5205 5202 5198 5194 5192 5189 5186 5184 5183 5182 5181 5181 5181 5181 5182 5182 5182 5181 5181 5181 5181 5181 5180 5179 5179 5180 5180 5180 5180 5183 5185 5186 5188 5189 5189 5189 5190 5191 5191 5192 5193 5193 5193 5194 5194 5195 5196 5198 5200 5203 5206 5209 5213 5217 5221 5224 5227 5232 5238 5244 5252 5256 5257 5262 5268 5269 5271 5277 5283 5287 5293 5300 5308 5316 5325 5335
5245 5237 5229 5222 5216 5210 5205 5200 5196 5193 5190 5186 5182 5180 5177 5175 5173 5172 5171 5170 5170 5170 5171 5171 5171 5171 5171 5171 5171 5171 5170 5170 5169 5169 5170 5170 5171 5171 5173 5175 5176 5177 5178 5178 5179 5180 5181 5182 5182 5183 5184 5184 5185 5185 5186 5187 5189 5191 5194 5197 5200 5203 5207 5210 5212 5216 5221 5226 5232 5239 5243 5246 5250 5254 5257 5260 5266 5271 5273 5276 5283 5293 5302 5311 5322
5231 5224 5217 5211 5204 5198 5192 5187 5184 5181 5178 5174 5171 5168 5166 5164 5163 5161 5160 5160 5160 5160 5160 5160 5160 5160 5160 5161 5161 5161 5161 5160 5159 5159 5160 5161 5161 5162 5164 5165 5166 5167 5168 5168 5169 5170 5171 5172 5173 5174 5175 5176 5176 5176 5176 5178 5180 5183 5185 5188 5191 5194 5198 5200 5202 5206 5210 5214 5220 5226 5230 5234 5239 5242 5246 5249 5253 5257 5259 5263 5270 5277 5285 5296 5308
5217 5210 5204 5199 5192 5187 5181 5176 5172 5169 5166 5163 5160 5158 5155 5153 5152 5151 5150 5150 5150 5150 5150 5150 5150 5150 5150 5151 5151 5151 5151 5151 5150 5150 5150 5151 5151 5153 5154 5155 5156 5158 5158 5159 5160 5161 5162 5163 5164 5165 5167 5167 5167 5168 5168 5169 5171 5174 5177 5179 5182 5186 5189 5190 5192 5196 5200 5204 5209 5214 5218 5223 5227 5230 5234 5238 5242 5244 5245 5252 5260 5263 5266 5279 5294
5203 5196 5190 5185 5180 5175 5171 5166 5161 5158 5155 5153 5150 5147 5145 5143 5142 5141 5140 5140 5139 5140 5140 5140 5140 5140 5141 5141 5141 5142 5142 5142 5141 5141 5141 5142 5142 5143 5144 5146 5147 5148 5149 5150 5151 5152 5153 5154 5155 5157 5158 5159 5159 5159 5159 5160 5163 5166 5168 5170 5174 5178 5179 5180 5182 5186 5190 5194 5199 5203 5207 5211 5215 5219 5224 5227 5230 5232 5233 5240 5248 5249 5252 5264 5277
5191 5184 5178 5172 5168 5164 5159 5156 5152 5148 5145 5143 5140 5138 5136 5134 5132 5131 5130 5130 5130 5130 5130 5130 5131 5132 5132 5132 5132 5133 5133 5133 5132 5132 5132 5133 5133 5133 5135 5137 5138 5140 5140 5141 5143 5144 5145 5146 5147 5148 5149 5150 5151 5151 5151 5152 5154 5157 5159 5163 5167 5169 5169 5170 5174 5177 5181 5185 5189 5193 5197 5201 5204 5208 5213 5216 5219 5221 5222 5228 5234 5236 5241 5251 5259
5178 5172 5166 5161 5156 5152 5148 5145 5142 5139 5136 5133 5131 5128 5126 5125 5123 5122 5121 5120 5120 5120 5120 5121 5122 5123 5123 5123 5124 5124 5124 5124 5124 5124 5124 5124 5124 5124 5126 5128 5130 5131 5132 5133 5135 5136 5137 5138 5139 5140 5141 5142 5142 5143 5144 5145 5146 5149 5152 5155 5158 5160 5160 5162 5166 5169 5173 5177 5181 5184 5188 5191 5194 5198 5202 5205 5208 5210 5212 5216 5221 5224 5230 5238 5244
5166 5160 5155 5150 5146 5141 5137 5134 5131 5128 5126 5124 5122 5120 5117 5116 5114 5113 5112 5111 5111 5111 5111 5112 5113 5114 5115 5115 5115 5115 5115 5115 5116 5116 5115 5116 5116 5116 5118 5120 5121 5122 5124 5126 5127 5128 5130 5130 5131 5132 5132 5133 5134 5135 5136 5137 5139 5142 5145 5147 5149 5150 5152 5155 5159 5162 5166 5169 5172 5175 5178 5181 5184 5188 5191 5195 5197 5200 5202 5206 5210 5213 5217 5224 5230
5153 5148 5143 5139 5135 5131 5127 5123 5120 5118 5116 5114 5112 5111 5108 5107 5105 5104 5103 5103 5103 5103 5103 5104 5104 5105 5106 5107 5107 5107 5107 5107 5108 5108 5108 5108 5108 5109 5110 5112 5113 5114 5116 5118 5119 5121 5122 5123 5123 5124 5124 5126 5127 5127 5129 5130 5132 5135 5137 5139 5140 5142 5144 5148 5152 5155 5157 5159 5162 5166 5169 5171 5174 5178 5181 5185 5187 5189 5192 5195 5198 5201 5205 5210 5215
5142 5137 5132 5128 5124 5120 5116 5113 5111 5108 5106 5104 5103 5101 5100 5098 5097 5096 5095 5095 5095 5095 5095 5095 5096 5097 5098 5099 5099 5099 5099 5099 5100 5100 5100 5101 5101 5101 5102 5104 5105 5106 5107 5110 5111 5113 5114 5114 5115 5116 5117 5118 5119 5120 5121 5123 5125 5127 5129 5130 5132 5134 5137 5140 5144 5145 5148 5151 5154 5157 5160 5163 5166 5169 5172 5175 5177 5179 5182 5185 5187 5190 5193 5198 5202
5131 5126 5121 5117 5113 5109 5106 5103 5101 5099 5097 5095 5093 5092 5091 5090 5089 5088 5087 5087 5087 5087 5087 5088 5089 5089 5090 5091 5091 5092 5092 5092 5092 5092 5093 5094 5094 5094 5095 5096 5097 5099 5100 5102 5103 5104 5105 5106 5107 5108 5109 5110 5111 5113 5114 5116 5118 5119 5121 5123 5125 5127 5130 5133 5135 5137 5140 5144 5146 5149 5152 5155 5158 5161 5163 5165 5167 5170 5173 5175 5178 5180 5183 5186 5191
5121 5115 5111 5107 5103 5099 5096 5094 5092 5089 5088 5086 5085 5084 5083 5082 5081 5080 5079 5079 5079 5079 5079 5080 5081 5082 5083 5083 5084 5085 5085 5085 5085 5085 5086 5087 5088 5088 5088 5089 5090 5091 5092 5093 5095 5095 5097 5098 5099 5100 5101 5103 5104 5106 5108 5109 5109 5111 5114 5116 5118 5120 5123 5125 5127 5130 5133 5136 5138 5141 5144 5146 5149 5151 5154 5156 5159 5161 5163 5165 5168 5171 5173 5175 5179
5110 5106 5101 5097 5093 5090 5087 5085 5083 5081 5079 5077 5076 5076 5075 5074 5073 5072 5072 5071 5071 5072 5072 5073 5074 5075 5076 5076 5077 5078 5078 5078 5078 5078 5079 5080 5081 5081 5082 5082 5083 5083 5084 5086 5087 5088 5089 5091 5092 5093 5095 5096 5097 5099 5100 5100 5102 5104 5107 5109 5111 5113 5116 5118 5121 5123 5126 5128 5131 5133 5135 5137 5140 5143 5145 5147 5150 5152 5153 5156 5158 5161 5163 5164 5168
5101 5096 5092 5088 5084 5081 5078 5076 5074 5072 5071 5069 5068 5068 5067 5066 5066 5065 5065 5064 5064 5064 5065 5066 5067 5068 5069 5070 5071 5072 5072 5072 5071 5072 5073 5074 5074 5075 5075 5075 5076 5076 5077 5079 5080 5081 5083 5085 5086 5087 5088 5089 5090 5091 5092 5093 5095 5097 5100 5102 5104 5107 5109 5111 5114 5116 5118 5121 5123 5125 5128 5130 5132 5135 5137 5139 5142 5143 5145 5147 5149 5152 5154 5154 5158
5093 5088 5083 5080 5076 5073 5071 5068 5066 5064 5063 5062 5061 5060 5059 5059 5058 5058 5058 5058 5058 5058 5058 5059 5060 5061 5062 5064 5064 5065 5066 5066 5065 5066 5067 5067 5068 5068 5068 5069 5069 5070 5071 5072 5073 5075 5077 5079 5079 5080 5082 5082 5083 5084 5085 5086 5088 5090 5093 5095 5097 5100 5102 5105 5107 5109 5111 5114 5116 5118 5120 5122 5125 5127 5129 5132 5134 5135 5136 5138 5141 5143 5145 5146 5150
5085 5081 5076 5072 5069 5066 5063 5061 5059 5057 5055 5055 5054 5053 5053 5052 5051 5051 5051 5051 5051 5052 5052 5053 5053 5055 5056 5057 5058 5059 5060 5060 5059 5060 5060 5061 5061 5062 5062 5063 5063 5064 5065 5066 5067 5070 5072 5073 5073 5074 5074 5075 5076 5077 5078 5080 5081 5083 5086 5088 5091 5093 5096 5098 5100 5103 5105 5107 5109 5111 5113 5115 5118 5120 5122 5124 5126 5127 5128 5130 5133 5135 5136 5139 5142
5078 5074 5069 5065 5062 5059 5057 5054 5052 5050 5049 5048 5048 5047 5047 5046 5045 5045 5045 5045 5045 5045 5046 5047 5048 5048 5050 5051 5052 5053 5053 5054 5054 5054 5054 5055 5055 5056 5056 5056 5057 5058 5059 5060 5062 5064 5066 5066 5066 5066 5066 5066 5068 5069 5071 5072 5074 5077 5079 5082 5084 5087 5089 5091 5094 5096 5098 5100 5102 5105 5107 5109 5111 5113 5115 5117 5119 5120 5121 5123 5125 5127 5129 5131 5134
5071 5067 5063 5059 5056 5053 5050 5048 5046 5044 5043 5042 5041 5041 5041 5040 5039 5039 5039 5039 5040 5040 5040 5041 5042 5042 5044 5045 5046 5047 5047 5048 5048 5048 5048 5049 5049 5050 5050 5050 5051 5052 5054 5055 5057 5058 5059 5059 5059 5058 5057 5058 5059 5061 5062 5065 5067 5070 5073 5076 5079 5081 5083 5085 5088 5090 5092 5094 5096 5098 5100 5102 5104 5106 5108 5110 5111 5113 5115 5116 5118 5120 5121 5123 5126
5064 5060 5056 5053 5050 5047 5044 5042 5040 5039 5038 5037 5036 5035 5035 5035 5034 5034 5034 5034 5034 5035 5035 5035 5036 5037 5037 5038 5039 5041 5042 5042 5043 5042 5042 5042 5043 5044 5044 5045 5046 5047 5049 5050 5051 5052 5052 5051 5050 5049 5049 5050 5051 5052 5055 5058 5061 5064 5068 5071 5073 5075 5077 5079 5081 5084 5086 5088 5090 5092 5094 5096 5098 5100 5101 5103 5105 5106 5108 5109 5110 5112 5113 5116 5118
5058 5054 5051 5048 5045 5042 5039 5037 5035 5034 5033 5032 5031 5030 5030 5029 5029 5029 5029 5029 5029 5029 5030 5030 5030 5031 5032 5032 5033 5034 5036 5037 5037 5037 5037 5037 5037 5038 5039 5040 5041 5042 5043 5044 5045 5045 5044 5043 5042 5041 5041 5042 5044 5046 5049 5053 5056 5060 5063 5066 5068 5070 5072 5074 5076 5078 5080 5082 5085 5086 5088 5090 5091 5093 5095 5096 5097 5099 5101 5101 5102 5104 5105 5107 5109
5052 5048 5045 5042 5040 5037 5035 5032 5031 5029 5028 5027 5026 5025 5025 5025 5024 5024 5024 5024 5025 5025 5025 5024 5025 5025 5026 5027 5028 5028 5029 5031 5032 5032 5032 5032 5032 5033 5034 5035 5036 5037 5038 5039 5039 5038 5037 5035 5035 5035 5036 5037 5039 5042 5045 5049 5052 5055 5058 5061 5063 5065 5067 5069 5071 5073 5075 5077 5079 5080 5082 5084 5085 5087 5088 5089 5091 5092 5093 5094 5095 5096 5097 5098 5099
5046 5043 5040 5037 5035 5033 5031 5028 5026 5025 5024 5023 5022 5021 5021 5020 5020 5020 5020 5020 5020 5020 5020 5020 5020 5020 5020 5021 5022 5023 5024 5025 5026 5027 5027 5027 5027 5028 5029 5031 5032 5032 5033 5034 5033 5032 5031 5030 5030 5031 5032 5034 5036 5039 5042 5046 5049 5051 5054 5056 5058 5060 5062 5064 5066 5068 5070 5071 5073 5075 5076 5078 5079 5080 5082 5083 5084 5085 5086 5086 5087 5088 5089 5089 5090
5041 5038 5036 5033 5030 5028 5026 5024 5023 5021 5019 5018 5017 5017 5016 5016 5015 5015 5015 5015 5015 5015 5015 5015 5015 5015 5015 5016 5017 5017 5018 5019 5021 5021 5022 5022 5023 5024 5025 5026 5027 5028 5029 5029 5029 5028 5028 5028 5028 5029 5030 5032 5034 5037 5040 5043 5045 5048 5050 5052 5054 5056 5058 5060 5062 5063 5065 5066 5068 5069 5070 5072 5073 5074 5075 5076 5077 5078 5079 5079 5079 5079 5079 5080 5081
5036 5034 5031 5029 5026 5023 5021 5020 5018 5017 5015 5014 5013 5012 5011 5011 5011 5010 5010 5010 5010 5010 5010 5010 5010 5010 5010 5011 5012 5012 5013 5014 5015 5017 5017 5018 5019 5020 5021 5022 5023 5024 5025 5025 5025 5025 5025 5026 5026 5028 5029 5031 5033 5035 5037 5040 5042 5044 5046 5048 5050 5052 5054 5056 5058 5059 5060 5061 5063 5064 5065 5066 5067 5068 5069 5070 5071 5071 5071 5071 5071 5070 5070 5071 5073
5032 5029 5026 5024 5022 5019 5017 5015 5013 5012 5011 5009 5008 5007 5007 5006 5005 5005 5005 5005 5004 5004 5004 5004 5005 5005 5005 5006 5007 5008 5009 5009 5011 5012 5013 5013 5014 5016 5017 5018 5019 5020 5021 5021 5022 5022 5023 5024 5025 5026 5027 5029 5031 5033 5035 5037 5039 5041 5043 5045 5046 5048 5050 5052 5053 5054 5056 5057 5058 5059 5059 5060 5061 5062 5063 5064 5064 5064 5064 5063 5063 5063 5063 5064 5064
5027 5024 5022 5020 5017 5015 5013 5011 5009 5007 5006 5005 5003 5002 5001 5001 5000 5000 4999 4999 4999 4999 4999 4999 4999 5000 5000 5001 5002 5003 5004 5005 5006 5007 5008 5009 5010 5011 5013 5014 5015 5016 5017 5018 5019 5019 5020 5021 5022 5024 5025 5027 5028 5030 5032 5034 5036 5038 5040 5041 5043 5045 5046 5048 5049 5050 5051 5052 5053 5054 5054 5055 5056 5057 5058 5058 5058 5058 5057 5057 5057 5056 5057 5057 5058
5022 5019 5017 5014 5012 5011 5008 5006 5004 5002 5001 5000 4998 4997 4996 4996 4995 4994 4994 4993 4993 4993 4993 4994 4994 4994 4995 4996 4997 4998 4999 5000 5001 5003 5004 5005 5006 5007 5009 5010 5011 5012 5013 5014 5015 5016 5017 5018 5019 5021 5022 5024 5026 5027 5029 5031 5033 5034 5036 5038 5039 5041 5042 5044 5045 5046 5047 5048 5049 5049 5050 5050 5051 5052 5052 5052 5052 5052 5052 5052 5052 5053 5053 5053 5054
5016 5014 5012 5009 5007 5005 5003 5001 4999 4997 4996 4995 4993 4992 4991 4990 4990 4989 4988 4988 4988 4988 4988 4988 4989 4989 4990 4991 4992 4993 4994 4996 4997 4998 5000 5001 5002 5003 5005 5006 5008 5009 5010 5011 5012 5013 5014 5015 5017 5018 5020 5021 5023 5025 5026 5028 5030 5031 5033 5034 5036 5037 5039 5040 5041 5042 5043 5044 5044 5045 5045 5045 5046 5046 5047 5047 5047 5047 5047 5048 5049 5050 5051 5052 5052
5011 5008 5006 5003 5001 4999 4997 4995 4993 4992 4990 4989 4988 4987 4986 4985 4984 4984 4983 4983 4983 4983 4983 4983 4984 4984 4985 4986 4987 4988 4990 4991 4992 4994 4996 4997 4998 4999 5001 5002 5004 5006 5007 5008 5009 5010 5011 5012 5014 5015 5017 5019 5020 5022 5024 5025 5027 5028 5030 5031 5033 5034 5035 5037 5038 5039 5039 5040 5040 5041 5041 5041 5041 5041 5042 5042 5043 5043 5044 5046 5048 5049 5051 5052 5053
5005 5002 5000 4997 4995 4993 4991 4989 4987 4986 4984 4983 4981 4980 4980 4979 4979 4978 4978 4977 4977 4977 4978 4978 4979 4979 4980 4981 4982 4984 4985 4986 4988 4990 4991 4993 4994 4996 4997 4998 5000 5002 5004 5005 5006 5007 5008 5009 5011 5013 5014 5016 5018 5020 5021 5023 5024 5026 5027 5029 5030 5031 5033 5034 5035 5035 5036 5036 5037 5037 5037 5037 5037 5037 5038 5038 5040 5041 5043 5045 5047 5049 5051 5052 5053
4998 4996 4994 4991 4989 4987 4984 4983 4981 4980 4978 4977 4975 4974 4973 4973 4972 4972 4972 4972 4972 4972 4972 4973 4973 4974 4975 4976 4977 4979 4980 4982 4983 4985 4987 4989 4991 4992 4994 4995 4997 4999 5001 5002 5003 5004 5005 5007 5008 5010 5012 5014 5016 5017 5019 5021 5022 5023 5025 5026 5028 5029 5030 5031 5032 5033 5033 5033 5033 5033 5033 5034 5034 5035 5035 5036 5038 5041 5043 5045 5047 5049 5051 5052 5053
4992 4990 4987 4985 4983 4981 4979 4977 4975 4973 4972 4971 4969 4968 4967 4967 4966 4966 4966 4966 4966 4966 4967 4967 4968 4969 4970 4971 4972 4974 4976 4977 4979 4981 4983 4985 4987 4988 4990 4991 4993 4995 4998 4999 5000 5001 5003 5004 5006 5008 5010 5012 5014 5015 5017 5018 5020 5021 5023 5024 5026 5027 5028 5029 5029 5030 5030 5030 5030 5031 5031 5031 5032 5033 5035 5036 5038 5040 5042 5044 5047 5049 5050 5052 5052
4986 4983 4981 4979 4977 4975 4973 4970 4969 4967 4965 4964 4963 4962 4961 4960 4960 4960 4960 4960 4960 4960 4961 4961 4962 4963 4965 4966 4967 4969 4971 4973 4975 4976 4978 4981 4983 4985 4986 4988 4990 4992 4994 4996 4998 4999 5000 5002 5004 5006 5008 5010 5011 5013 5015 5016 5018 5019 5021 5022 5024 5025 5026 5027 5027 5028 5028 5028 5028 5029 5029 5031 5032 5033 5035 5037 5039 5041 5042 5044 5046 5048 5050 5051 5052
4980 4977 4975 4972 4970 4968 4966 4964 4962 4960 4958 4957 4956 4955 4954 4953 4953 4953 4953 4953 4954 4954 4955 4956 4957 4958 4959 4961 4962 4964 4966 4968 4970 4972 4974 4976 4979 4981 4983 4985 4987 4989 4991 4994 4995 4997 4998 5000 5002 5003 5005 5007 5009 5011 5013 5015 5016 5018 5019 5021 5022 5023 5024 5025 5025 5026 5026 5026 5027 5028 5029 5031 5032 5034 5035 5037 5039 5041 5042 5044 5046 5047 5049 5050 5051
4974 4971 4968 4966 4963 4961 4959 4957 4954 4952 4951 4949 4948 4947 4946 4945 4945 4945 4946 4946 4947 4948 4949 4950 4951 4952 4954 4955 4957 4959 4961 4963 4965 4968 4970 4972 4975 4977 4979 4982 4984 4986 4989 4991 4993 4994 4996 4998 5000 5002 5004 5006 5008 5009 5011 5013 5015 5016 5018 5019 5020 5022 5023 5023 5024 5024 5025 5025 5027 5028 5029 5031 5033 5034 5036 5037 5039 5040 5042 5043 5045 5046 5048 5049 5050
4968 4965 4962 4959 4956 4953 4951 4949 4947 4945 4943 4942 4940 4939 4939 4938 4938 4938 4938 4939 4940 4941 4942 4943 4945 4946 4948 4950 4952 4954 4956 4958 4961 4963 4966 4968 4971 4973 4976 4978 4981 4983 4986 4988 4990 4992 4994 4996 4998 5000 5002 5004 5006 5008 5010 5012 5013 5015 5017 5018 5019 5020 5021 5022 5023 5023 5024 5025 5027 5028 5030 5032 5033 5035 5037 5038 5039 5041 5042 5043 5045 5046 5047 5049 5050
4961 4958 4955 4952 4949 4947 4944 4942 4940 4939 4937 4936 4934 4933 4932 4931 4931 4931 4931 4932 4933 4934 4935 4937 4938 4940 4942 4944 4946 4949 4951 4954 4956 4959 4962 4964 4967 4970 4972 4975 4977 4980 4983 4986 4988 4990 4992 4994 4996 4998 5000 5003 5005 5007 5009 5010 5012 5014 5016 5017 5018 5020 5020 5021 5022 5023 5024 5025 5027 5029 5031 5033 5034 5036 5038 5039 5040 5041 5043 5044 5045 5046 5048 5049 5050